User: anonymous   Login
Location: Dumpton Point
(51.3500°N, 1.4433°E)
Time: 13:55:51
(UTC+00:00)
Language:

STARLINK-1197 - Orbit

View from above orbital plane
View from above orbital plane
View from above satellite
View from above satellite

Ground track
Ground track

The orbit data is extracted from the following two-line orbital elements,

1 45199U 20012X   20192.25001157  .00036632  00000-0  25208-2 0  9997
2 45199  52.9985 312.2010 0001109 104.4107 158.0712 15.05571910 22423
Epoch (UTC): 10 July 2020 06:00:01
Eccentricity: 0.0001109
inclination: 52.9985°
perigee height: 549 km
apogee height: 550 km
right ascension of ascending node: 312.2010°
argument of perigee: 104.4107°
revolutions per day: 15.05571910
mean anomaly at epoch: 158.0712°
orbit number at epoch: 2242

The dashed part of the orbit path shows where the satellite is in the earth's shadow,  

DLR